Location: Unspecified
(64.9000°N, 0.0000°E)
Time: 10:18:50
(UTC+00:00)

Transit 2A Rocket - Pass Details

Date: 25 June 2019
Orbit: 588 x 915 km, 66.7° (Epoch: 16 July)

Event Time Altitude Azimuth Distance (km) Brightness Sun altitude
Rises 18:40:57 0° 307° (NW) 3,368 9.7 17.1°
Reaches altitude 10° 18:44:19 10° 287° (WNW) 2,364 10.3 16.8°
Maximum altitude 18:47:35 17° 250° (WSW) 1,879 8.0 16.5°
Drops below altitude 10° 18:50:42 10° 212° (SSW) 2,219 7.6 16.2°
Sets 18:53:43 0° 192° (SSW) 3,067 8.0 15.9°
